| time (UTC) | temp F | wind direction | speed knots | gust knots | rain 1hr in | rain 24hr in | rain mn in | humidity % | barometer mb |
| 20260507085508 | 56 | 0.0 | 0.0 | 0.00 | 0.00 | 0.06 | 74 | 1010.8 | |
| 20260507085007 | 56 | 0.0 | 0.0 | 0.00 | 0.00 | 0.06 | 74 | 1010.7 | |
| 20260507084509 | 56 | 0.0 | 0.0 | 0.00 | 0.00 | 0.06 | 74 | 1010.8 | |
| 20260507084004 | 56 | 0.0 | 0.0 | 0.00 | 0.00 | 0.06 | 74 | 1010.9 | |
| 20260507083503 | 56 | 0.0 | 0.0 | 0.00 | 0.00 | 0.06 | 74 | 1010.7 | |
| 20260507083001 | 56 | 0.0 | 0.0 | 0.00 | 0.00 | 0.06 | 74 | 1010.8 | |
| 20260507082600 | 56 | 0.0 | 0.0 | 0.00 | 0.00 | 0.06 | 74 | 1010.6 | |
| 20260507082058 | 56 | 0.0 | 0.0 | 0.00 | 0.00 | 0.06 | 74 | 1010.5 | |
| 20260507081556 | 56 | 0.0 | 0.0 | 0.00 | 0.00 | 0.06 | 75 | 1010.2 | |
| 20260507081055 | 56 | 0.0 | 0.0 | 0.00 | 0.00 | 0.06 | 75 | 1010.3 | |
| 20260507080553 | 56 | 0.0 | 0.0 | 0.00 | 0.00 | 0.06 | 75 | 1010.2 | |
| 20260507080054 | 56 | 0.0 | 0.0 | 0.00 | 0.00 | 0.06 | 75 | 1010.3 | |
| 20260507075553 | 56 | 0.0 | 0.0 | 0.00 | 0.00 | 0.06 | 75 | 1010.3 | |
| 20260507075049 | 56 | 0.0 | 0.0 | 0.00 | 0.00 | 0.06 | 75 | 1010.2 | |
| 20260507074551 | 56 | 0.0 | 0.0 | 0.00 | 0.00 | 0.06 | 75 | 1010.1 | |
| 20260507074046 | 56 | 0.0 | 0.0 | 0.00 | 0.00 | 0.06 | 75 | 1010.0 | |
| 20260507073545 | 56 | 0.0 | 0.0 | 0.00 | 0.00 | 0.06 | 75 | 1010.2 | |
| 20260507073044 | 57 | 0.0 | 0.0 | 0.00 | 0.00 | 0.06 | 75 | 1010.2 | |
| 20260507072543 | 57 | 0.0 | 0.0 | 0.00 | 0.00 | 0.06 | 75 | 1010.2 | |
| 20260507072042 | 57 | 0.0 | 0.0 | 0.00 | 0.00 | 0.06 | 75 | 1010.2 | |
| 20260507071543 | 57 | 0.0 | 0.0 | 0.00 | 0.00 | 0.06 | 75 | 1010.0 | |
| 20260507071039 | 57 | 0.0 | 0.0 | 0.00 | 0.00 | 0.06 | 76 | 1010.0 | |
| 20260507070536 | 57 | 0.0 | 0.0 | 0.00 | 0.00 | 0.06 | 76 | 1009.9 | |
| 20260507070037 | 57 | 0.0 | 0.0 | 0.00 | 0.00 | 0.06 | 76 | 1010.0 | |
| 20260507065533 | 58 | 0.0 | 0.0 | 0.00 | 0.00 | 0.06 | 76 | 1010.1 | |
| 20260507065032 | 58 | 0.0 | 0.0 | 0.00 | 0.00 | 0.06 | 76 | 1010.3 | |
| 20260507064538 | 58 | 0.0 | 0.0 | 0.00 | 0.00 | 0.06 | 76 | 1010.3 | |
| 20260507064030 | 58 | 0.0 | 0.0 | 0.00 | 0.00 | 0.06 | 76 | 1010.1 | |
| 20260507063527 | 59 | 0.0 | 0.0 | 0.00 | 0.00 | 0.06 | 76 | 1009.8 | |
| 20260507063027 | 59 | 0.0 | 0.0 | 0.00 | 0.00 | 0.06 | 76 | 1009.6 | |
| 20260507062525 | 59 | 0.0 | 0.0 | 0.00 | 0.00 | 0.06 | 76 | 1009.6 | |
| 20260507062023 | 59 | 0.0 | 0.0 | 0.00 | 0.00 | 0.06 | 75 | 1009.7 | |
| 20260507061524 | 59 | 0.0 | 0.0 | 0.00 | 0.00 | 0.06 | 75 | 1009.9 | |
| 20260507061019 | 59 | 0.0 | 0.0 | 0.00 | 0.00 | 0.06 | 75 | 1010.2 | |
| 20260507060518 | 60 | 0.0 | 0.0 | 0.00 | 0.00 | 0.05 | 75 | 1010.0 | |
| 20260507060032 | 60 | 0.0 | 0.0 | 0.00 | 0.00 | 0.05 | 74 | 1009.9 | |
| 20260507055516 | 60 | 0.0 | 0.0 | 0.00 | 0.00 | 0.05 | 74 | 1010.2 | |
| 20260507055015 | 60 | 0.0 | 0.0 | 0.00 | 0.00 | 0.05 | 73 | 1010.0 | |
| 20260507054513 | 60 | 0.0 | 0.0 | 0.00 | 0.00 | 0.05 | 73 | 1010.0 | |
| 20260507054012 | 61 | 0.0 | 0.0 | 0.00 | 0.00 | 0.05 | 72 | 1010.2 | |
| 20260507053512 | 61 | 0.0 | 0.0 | 0.00 | 0.00 | 0.05 | 71 | 1010.1 | |
| 20260507053009 | 61 | 0.0 | 0.0 | 0.00 | 0.00 | 0.04 | 70 | 1010.2 | |
| 20260507052507 | 62 | 0.0 | 0.0 | 0.00 | 0.00 | 0.03 | 69 | 1010.4 | |
| 20260507052005 | 62 | 0.0 | 0.0 | 0.00 | 0.00 | 0.02 | 68 | 1010.3 | |
| 20260507051504 | 63 | 0.0 | 0.0 | 0.00 | 0.00 | 0.01 | 67 | 1010.3 | |
| 20260507051006 | 63 | 0.0 | 0.0 | 0.00 | 0.00 | 0.00 | 65 | 1010.2 | |
| 20260507050533 | 63 | 0.0 | 0.0 | 0.00 | 0.00 | 0.00 | 64 | 1010.4 | |
| 20260507050111 | 63 | 0.0 | 0.0 | 0.00 | 0.00 | 0.00 | 63 | 1010.5 | |
| 20260507045559 | 63 | 0.0 | 0.0 | 0.00 | 0.00 | 0.00 | 63 | 1010.0 | |
| 20260507045056 | 64 | 0.0 | 0.0 | 0.00 | 0.00 | 0.00 | 62 | 1009.9 | |
| 20260507044558 | 64 | 0.0 | 0.0 | 0.00 | 0.00 | 0.00 | 62 | 1010.1 | |
| 20260507044059 | 64 | 0.0 | 0.0 | 0.00 | 0.00 | 0.00 | 61 | 1010.0 | |
| 20260507043553 | 65 | 0.0 | 0.0 | 0.00 | 0.00 | 0.00 | 62 | 1009.7 | |
| 20260507043052 | 65 | 0.0 | 0.0 | 0.00 | 0.00 | 0.00 | 63 | 1009.8 | |
| 20260507042551 | 66 | 0.0 | 0.0 | 0.00 | 0.00 | 0.00 | 64 | 1010.1 | |
| 20260507042048 | 66 | 0.0 | 0.0 | 0.00 | 0.00 | 0.00 | 65 | 1009.6 | |
| 20260507041547 | 66 | 0.0 | 0.0 | 0.00 | 0.00 | 0.00 | 66 | 1009.5 | |
| 20260507041045 | 66 | 0.0 | 0.0 | 0.00 | 0.00 | 0.00 | 65 | 1009.4 | |
| 20260507040544 | 66 | 0.0 | 0.0 | 0.00 | 0.00 | 0.00 | 65 | 1009.1 | |
| 20260507040047 | 66 | 0.0 | 0.0 | 0.00 | 0.00 | 0.00 | 65 | 1009.1 | |
| 20260507035541 | 66 | 0.0 | 0.0 | 0.00 | 0.00 | 0.18 | 64 | 1009.0 | |
| 20260507035043 | 66 | 0.0 | 0.0 | 0.00 | 0.00 | 0.18 | 64 | 1008.9 | |
| 20260507034541 | 66 | 0.0 | 0.0 | 0.00 | 0.00 | 0.18 | 64 | 1009.3 | |
| 20260507034036 | 67 | 0.0 | 0.0 | 0.00 | 0.00 | 0.18 | 64 | 1009.5 | |
| 20260507033535 | 67 | 0.0 | 0.0 | 0.00 | 0.00 | 0.18 | 63 | 1009.5 | |
| 20260507033041 | 67 | 0.0 | 0.0 | 0.00 | 0.00 | 0.18 | 63 | 1009.4 | |
| 20260507032533 | 67 | 0.0 | 0.0 | 0.00 | 0.00 | 0.18 | 63 | 1009.2 | |
| 20260507032030 | 67 | 0.0 | 0.0 | 0.00 | 0.00 | 0.18 | 62 | 1009.3 | |
| 20260507031533 | 67 | 0.0 | 0.0 | 0.00 | 0.00 | 0.18 | 62 | 1009.2 | |
| 20260507031031 | 67 | 0.0 | 0.0 | 0.00 | 0.00 | 0.18 | 61 | 1009.2 | |
| 20260507030527 | 67 | 0.0 | 0.0 | 0.00 | 0.00 | 0.18 | 61 | 1009.1 | |
| 20260507030033 | 68 | 0.0 | 0.0 | 0.00 | 0.00 | 0.18 | 61 | 1009.0 | |
| 20260507025523 | 68 | 0.0 | 0.0 | 0.00 | 0.00 | 0.18 | 61 | 1009.0 | |
| 20260507025022 | 68 | 0.0 | 0.0 | 0.00 | 0.00 | 0.18 | 62 | 1008.9 | |
| 20260507024521 | 68 | 0.0 | 0.0 | 0.00 | 0.00 | 0.18 | 63 | 1008.8 | |
| 20260507024019 | 68 | 0.0 | 0.0 | 0.00 | 0.00 | 0.18 | 63 | 1008.7 | |
| 20260507023518 | 69 | 0.0 | 0.0 | 0.00 | 0.00 | 0.18 | 64 | 1008.5 | |
| 20260507023017 | 69 | 0.0 | 0.0 | 0.00 | 0.00 | 0.18 | 66 | 1008.5 | |
| 20260507022515 | 69 | 0.0 | 0.0 | 0.00 | 0.00 | 0.18 | 68 | 1008.5 | |
| 20260507022015 | 70 | 0.0 | 0.0 | 0.00 | 0.00 | 0.18 | 69 | 1008.3 | |
| 20260507021519 | 70 | 0.0 | 0.0 | 0.00 | 0.00 | 0.18 | 69 | 1008.2 | |
| 20260507021011 | 70 | 0.0 | 0.0 | 0.00 | 0.00 | 0.18 | 69 | 1008.5 | |
| 20260507020509 | 70 | 0.0 | 0.0 | 0.00 | 0.00 | 0.18 | 69 | 1008.4 | |
| 20260507020010 | 70 | 0.0 | 0.0 | 0.00 | 0.00 | 0.18 | 69 | 1008.2 | |
| 20260507015506 | 70 | 0.0 | 0.0 | 0.00 | 0.00 | 0.18 | 69 | 1008.1 | |
| 20260507015005 | 70 | 0.0 | 0.0 | 0.00 | 0.00 | 0.18 | 69 | 1008.2 | |
| 20260507014504 | 70 | 0.0 | 0.0 | 0.00 | 0.00 | 0.18 | 69 | 1008.6 | |
| 20260507014002 | 70 | 0.0 | 0.0 | 0.00 | 0.00 | 0.18 | 69 | 1008.5 | |
| 20260507013501 | 70 | 0.0 | 0.0 | 0.00 | 0.00 | 0.18 | 69 | 1008.5 | |
| 20260507013059 | 70 | 0.0 | 0.0 | 0.00 | 0.00 | 0.18 | 68 | 1008.5 | |
| 20260507012603 | 70 | 0.0 | 0.0 | 0.00 | 0.00 | 0.18 | 68 | 1008.4 | |
| 20260507012056 | 70 | 0.0 | 0.0 | 0.00 | 0.00 | 0.18 | 68 | 1008.7 | |
| 20260507011558 | 70 | 0.0 | 0.0 | 0.00 | 0.00 | 0.18 | 68 | 1008.6 | |
| 20260507011053 | 70 | 0.0 | 0.0 | 0.00 | 0.00 | 0.18 | 68 | 1008.6 | |
| 20260507010552 | 70 | 0.0 | 0.0 | 0.00 | 0.00 | 0.18 | 68 | 1008.4 | |
| 20260507010051 | 70 | 0.0 | 0.0 | 0.00 | 0.00 | 0.18 | 68 | 1008.5 | |
| 20260507005549 | 70 | 0.0 | 0.0 | 0.00 | 0.00 | 0.18 | 68 | 1008.3 | |
| 20260507005048 | 70 | 0.0 | 0.0 | 0.00 | 0.00 | 0.18 | 68 | 1008.2 | |
| 20260507004547 | 70 | 0.0 | 0.0 | 0.00 | 0.00 | 0.18 | 68 | 1008.4 | |
| 20260507004045 | 70 | 0.0 | 0.0 | 0.00 | 0.00 | 0.18 | 67 | 1008.1 | |
| 20260507003544 | 70 | 0.0 | 0.0 | 0.00 | 0.00 | 0.18 | 67 | 1007.9 | |
| 20260507003042 | 70 | 0.0 | 0.0 | 0.00 | 0.00 | 0.18 | 67 | 1008.1 | |
| 20260507002541 | 70 | 0.0 | 0.0 | 0.00 | 0.00 | 0.18 | 67 | 1008.0 | |
| 20260507002039 | 71 | 0.0 | 0.0 | 0.00 | 0.00 | 0.18 | 67 | 1007.9 | |
| 20260507001537 | 71 | 0.0 | 0.0 | 0.00 | 0.00 | 0.18 | 67 | 1007.9 | |
| 20260507001036 | 71 | 0.0 | 0.0 | 0.00 | 0.00 | 0.18 | 67 | 1008.0 | |
| 20260507000536 | 71 | 0.0 | 0.0 | 0.00 | 0.00 | 0.18 | 67 | 1008.0 | |
| 20260507000036 | 71 | 0.0 | 0.0 | 0.00 | 0.00 | 0.18 | 66 | 1007.7 | |
| 20260506235532 | 71 | 0.0 | 0.0 | 0.00 | 0.00 | 0.18 | 66 | 1007.7 | |
| 20260506235030 | 71 | 0.0 | 0.0 | 0.00 | 0.00 | 0.18 | 66 | 1008.0 | |
| 20260506234529 | 71 | 0.0 | 0.0 | 0.00 | 0.00 | 0.18 | 66 | 1007.8 | |
| 20260506234027 | 71 | 0.0 | 0.0 | 0.00 | 0.00 | 0.18 | 65 | 1007.7 | |
| 20260506233526 | 71 | 0.0 | 0.0 | 0.00 | 0.00 | 0.18 | 65 | 1007.7 | |
| 20260506233025 | 71 | 0.0 | 0.0 | 0.00 | 0.00 | 0.18 | 65 | 1007.6 | |
| 20260506232523 | 71 | 0.0 | 0.0 | 0.00 | 0.00 | 0.18 | 65 | 1007.4 | |
| 20260506232021 | 72 | 0.0 | 0.0 | 0.00 | 0.00 | 0.18 | 65 | 1007.5 | |
| 20260506231525 | 72 | 0.0 | 0.0 | 0.00 | 0.00 | 0.18 | 64 | 1007.4 | |
| 20260506231018 | 72 | 0.0 | 0.0 | 0.00 | 0.00 | 0.18 | 64 | 1007.6 | |
| 20260506230517 | 72 | 0.0 | 0.0 | 0.00 | 0.00 | 0.18 | 64 | 1007.6 | |
| 20260506230015 | 72 | 0.0 | 0.0 | 0.00 | 0.00 | 0.18 | 64 | 1007.5 | |
| 20260506225517 | 72 | 0.0 | 0.0 | 0.00 | 0.00 | 0.18 | 64 | 1007.3 | |
| 20260506225014 | 72 | 0.0 | 0.0 | 0.00 | 0.00 | 0.18 | 64 | 1007.3 | |
| 20260506224511 | 72 | 0.0 | 0.0 | 0.00 | 0.00 | 0.18 | 63 | 1007.4 | |
| 20260506224010 | 72 | 0.0 | 0.0 | 0.00 | 0.00 | 0.18 | 63 | 1007.3 | |
| 20260506223511 | 73 | 0.0 | 0.0 | 0.00 | 0.00 | 0.18 | 63 | 1007.4 | |
| 20260506223014 | 73 | 0.0 | 0.0 | 0.00 | 0.00 | 0.18 | 63 | 1007.3 | |
| 20260506222506 | 73 | 0.0 | 0.0 | 0.00 | 0.00 | 0.18 | 63 | 1007.5 | |
| 20260506222006 | 73 | 0.0 | 0.0 | 0.00 | 0.00 | 0.18 | 62 | 1007.5 | |
| 20260506221502 | 73 | 0.0 | 0.0 | 0.00 | 0.00 | 0.18 | 62 | 1007.6 | |
| 20260506221001 | 74 | 0.0 | 0.0 | 0.00 | 0.00 | 0.18 | 61 | 1007.5 | |
| 20260506220600 | 74 | 0.0 | 0.0 | 0.00 | 0.00 | 0.18 | 61 | 1007.5 | |
| 20260506220101 | 74 | 0.0 | 0.0 | 0.00 | 0.00 | 0.18 | 61 | 1007.5 | |
| 20260506215557 | 74 | 0.0 | 0.0 | 0.00 | 0.00 | 0.18 | 60 | 1007.5 | |
| 20260506215058 | 75 | 0.0 | 0.0 | 0.00 | 0.00 | 0.18 | 60 | 1007.5 | |
| 20260506214554 | 0 | 0.0 | 0.0 | 0.00 | 0.00 | 0.18 | 1007.5 | ||
| 20260506214053 | 0 | 0.0 | 0.0 | 0.00 | 0.00 | 0.18 | 1007.3 | ||
| 20260506213555 | 0 | 0.0 | 0.0 | 0.00 | 0.00 | 0.18 | 1007.2 | ||
| 20260506213050 | 75 | 0.0 | 0.0 | 0.00 | 0.00 | 0.18 | 60 | 1007.2 | |
| 20260506212548 | 75 | 0.0 | 0.0 | 0.00 | 0.00 | 0.18 | 60 | 1007.1 | |
| 20260506212047 | 75 | 0.0 | 0.0 | 0.00 | 0.00 | 0.18 | 60 | 1007.1 | |
| 20260506211545 | 75 | 0.0 | 0.0 | 0.00 | 0.00 | 0.18 | 60 | 1007.1 | |
| 20260506211044 | 75 | 0.0 | 0.0 | 0.00 | 0.00 | 0.18 | 60 | 1007.2 | |
| 20260506210544 | 74 | 0.0 | 0.0 | 0.00 | 0.00 | 0.18 | 60 | 1007.0 | |
| 20260506210041 | 74 | 0.0 | 0.0 | 0.00 | 0.00 | 0.18 | 61 | 1006.9 | |
| 20260506205539 | 74 | 0.0 | 0.0 | 0.00 | 0.00 | 0.18 | 62 | 1006.8 | |
| 20260506205038 | 73 | 0.0 | 0.0 | 0.00 | 0.00 | 0.18 | 61 | 1006.9 | |
| 20260506204549 | 73 | 0.0 | 0.0 | 0.00 | 0.00 | 0.18 | 61 | 1006.9 | |
| 20260506204038 | 73 | 0.0 | 0.0 | 0.00 | 0.00 | 0.18 | 61 | 1007.0 | |
| 20260506203534 | 74 | 0.0 | 0.0 | 0.00 | 0.00 | 0.18 | 61 | 1007.0 | |
| 20260506203033 | 74 | 0.0 | 0.0 | 0.00 | 0.00 | 0.18 | 60 | 1007.0 | |
| 20260506202531 | 74 | 0.0 | 0.0 | 0.00 | 0.00 | 0.18 | 60 | 1006.9 | |
| 20260506202033 | 74 | 0.0 | 0.0 | 0.00 | 0.00 | 0.18 | 60 | 1006.8 | |
| 20260506201533 | 74 | 0.0 | 0.0 | 0.00 | 0.00 | 0.18 | 59 | 1007.0 | |
| 20260506201025 | 75 | 0.0 | 0.0 | 0.00 | 0.00 | 0.18 | 60 | 1006.8 | |
| 20260506200524 | 75 | 0.0 | 0.0 | 0.00 | 0.00 | 0.18 | 60 | 1006.9 | |
| 20260506200023 | 74 | 0.0 | 0.0 | 0.00 | 0.00 | 0.18 | 61 | 1006.9 | |
| 20260506195522 | 74 | 0.0 | 0.0 | 0.00 | 0.00 | 0.18 | 60 | 1006.8 | |
| 20260506195024 | 74 | 0.0 | 0.0 | 0.00 | 0.00 | 0.18 | 60 | 1006.8 | |
| 20260506194519 | 74 | 0.0 | 0.0 | 0.00 | 0.00 | 0.18 | 61 | 1006.9 | |
| 20260506194018 | 74 | 0.0 | 0.0 | 0.00 | 0.00 | 0.18 | 60 | 1006.9 | |
| 20260506193515 | 74 | 0.0 | 0.0 | 0.00 | 0.00 | 0.18 | 61 | 1007.0 | |
| 20260506193017 | 73 | 0.0 | 0.0 | 0.00 | 0.00 | 0.18 | 61 | 1006.9 | |
| 20260506192513 | 73 | 0.0 | 0.0 | 0.00 | 0.00 | 0.18 | 61 | 1007.0 | |
| 20260506192012 | 73 | 0.0 | 0.0 | 0.00 | 0.00 | 0.18 | 61 | 1007.1 | |
| 20260506191512 | 73 | 0.0 | 0.0 | 0.00 | 0.00 | 0.18 | 61 | 1007.1 | |
| 20260506191010 | 73 | 0.0 | 0.0 | 0.00 | 0.00 | 0.18 | 62 | 1007.1 | |
| 20260506190508 | 73 | 0.0 | 0.0 | 0.00 | 0.00 | 0.18 | 62 | 1007.3 | |
| 20260506190008 | 73 | 0.0 | 0.0 | 0.00 | 0.00 | 0.18 | 63 | 1007.3 | |
| 20260506185504 | 72 | 0.0 | 0.0 | 0.00 | 0.00 | 0.18 | 63 | 1007.6 | |
| 20260506185002 | 72 | 0.0 | 0.0 | 0.00 | 0.00 | 0.18 | 63 | 1007.6 | |
| 20260506184501 | 72 | 0.0 | 0.0 | 0.00 | 0.00 | 0.18 | 64 | 1007.6 | |
| 20260506184100 | 72 | 0.0 | 0.0 | 0.00 | 0.00 | 0.18 | 64 | 1007.7 | |
| 20260506183601 | 71 | 0.0 | 0.0 | 0.00 | 0.00 | 0.18 | 65 | 1007.5 | |
| 20260506183105 | 71 | 0.0 | 0.0 | 0.00 | 0.00 | 0.18 | 65 | 1007.6 | |
| 20260506182555 | 71 | 0.0 | 0.0 | 0.00 | 0.00 | 0.18 | 65 | 1007.7 | |
| 20260506182054 | 71 | 0.0 | 0.0 | 0.00 | 0.00 | 0.18 | 66 | 1007.7 | |
| 20260506181558 | 70 | 0.0 | 0.0 | 0.00 | 0.00 | 0.18 | 65 | 1007.7 | |
| 20260506181051 | 70 | 0.0 | 0.0 | 0.00 | 0.00 | 0.18 | 67 | 1007.8 | |
| 20260506180552 | 70 | 0.0 | 0.0 | 0.00 | 0.00 | 0.18 | 66 | 1007.8 | |
| 20260506180050 | 70 | 0.0 | 0.0 | 0.00 | 0.00 | 0.18 | 67 | 1008.2 | |
| 20260506175547 | 70 | 0.0 | 0.0 | 0.00 | 0.00 | 0.18 | 67 | 1008.0 | |
| 20260506175046 | 70 | 0.0 | 0.0 | 0.00 | 0.00 | 0.18 | 68 | 1008.0 | |
| 20260506174543 | 69 | 0.0 | 0.0 | 0.00 | 0.00 | 0.18 | 68 | 1008.0 | |
| 20260506174043 | 69 | 0.0 | 0.0 | 0.00 | 0.00 | 0.18 | 70 | 1008.0 | |
| 20260506173542 | 69 | 0.0 | 0.0 | 0.00 | 0.00 | 0.18 | 69 | 1007.9 | |
| 20260506173047 | 69 | 0.0 | 0.0 | 0.00 | 0.00 | 0.18 | 70 | 1008.1 | |
| 20260506172538 | 68 | 0.0 | 0.0 | 0.00 | 0.00 | 0.18 | 70 | 1008.1 | |
| 20260506172036 | 68 | 0.0 | 0.0 | 0.00 | 0.00 | 0.18 | 72 | 1008.1 | |
| 20260506171542 | 68 | 0.0 | 0.0 | 0.00 | 0.00 | 0.18 | 72 | 1008.1 | |
| 20260506171034 | 68 | 0.0 | 0.0 | 0.00 | 0.00 | 0.18 | 73 | 1008.1 | |
| 20260506170532 | 67 | 0.0 | 0.0 | 0.00 | 0.00 | 0.18 | 74 | 1008.1 | |
| 20260506170035 | 67 | 0.0 | 0.0 | 0.00 | 0.00 | 0.18 | 74 | 1008.1 | |
| 20260506165531 | 67 | 0.0 | 0.0 | 0.00 | 0.00 | 0.18 | 75 | 1008.2 | |
| 20260506165028 | 66 | 0.0 | 0.0 | 0.00 | 0.00 | 0.18 | 75 | 1008.5 | |
| 20260506164526 | 66 | 0.0 | 0.0 | 0.00 | 0.00 | 0.18 | 75 | 1008.3 | |
| 20260506164025 | 66 | 0.0 | 0.0 | 0.00 | 0.00 | 0.18 | 76 | 1008.4 | |
| 20260506163527 | 66 | 0.0 | 0.0 | 0.00 | 0.00 | 0.18 | 76 | 1008.5 | |
| 20260506163023 | 66 | 0.0 | 0.0 | 0.00 | 0.00 | 0.18 | 76 | 1008.4 | |
| 20260506162521 | 66 | 0.0 | 0.0 | 0.00 | 0.00 | 0.18 | 76 | 1008.4 | |
| 20260506162020 | 66 | 0.0 | 0.0 | 0.00 | 0.00 | 0.18 | 76 | 1008.4 | |
| 20260506161521 | 66 | 0.0 | 0.0 | 0.00 | 0.00 | 0.18 | 77 | 1008.4 | |
| 20260506161016 | 65 | 0.0 | 0.0 | 0.00 | 0.00 | 0.18 | 77 | 1008.5 | |
| 20260506160516 | 65 | 0.0 | 0.0 | 0.00 | 0.00 | 0.18 | 77 | 1008.5 | |
| 20260506160019 | 65 | 0.0 | 0.0 | 0.00 | 0.00 | 0.18 | 77 | 1008.6 | |
| 20260506155511 | 65 | 0.0 | 0.0 | 0.00 | 0.00 | 0.18 | 77 | 1008.8 | |
| 20260506155011 | 65 | 0.0 | 0.0 | 0.00 | 0.00 | 0.18 | 77 | 1008.8 | |
| 20260506154508 | 65 | 0.0 | 0.0 | 0.00 | 0.00 | 0.18 | 77 | 1008.8 | |
| 20260506154008 | 65 | 0.0 | 0.0 | 0.00 | 0.00 | 0.18 | 77 | 1008.6 | |
| 20260506153507 | 65 | 0.0 | 0.0 | 0.00 | 0.00 | 0.18 | 77 | 1008.6 | |
| 20260506153005 | 65 | 0.0 | 0.0 | 0.00 | 0.00 | 0.17 | 77 | 1008.5 | |
| 20260506152503 | 65 | 0.0 | 0.0 | 0.00 | 0.00 | 0.17 | 77 | 1008.9 | |
| 20260506152004 | 64 | 0.0 | 0.0 | 0.00 | 0.00 | 0.17 | 76 | 1009.1 | |
| 20260506151610 | 64 | 0.0 | 0.0 | 0.00 | 0.00 | 0.17 | 76 | 1009.2 | |
| 20260506151059 | 64 | 0.0 | 0.0 | 0.00 | 0.00 | 0.17 | 76 | 1009.2 | |
| 20260506150557 | 64 | 0.0 | 0.0 | 0.00 | 0.00 | 0.17 | 76 | 1009.4 | |
| 20260506150056 | 64 | 0.0 | 0.0 | 0.00 | 0.00 | 0.17 | 76 | 1009.5 | |
| 20260506145554 | 64 | 0.0 | 0.0 | 0.00 | 0.00 | 0.16 | 75 | 1009.5 | |
| 20260506145053 | 64 | 0.0 | 0.0 | 0.00 | 0.00 | 0.16 | 75 | 1009.5 | |
| 20260506144551 | 65 | 0.0 | 0.0 | 0.00 | 0.00 | 0.14 | 75 | 1009.5 | |
| 20260506144050 | 65 | 0.0 | 0.0 | 0.00 | 0.00 | 0.13 | 74 | 1009.5 | |
| 20260506143549 | 65 | 0.0 | 0.0 | 0.00 | 0.00 | 0.11 | 74 | 1009.3 | |
| 20260506143053 | 65 | 0.0 | 0.0 | 0.00 | 0.00 | 0.10 | 74 | 1009.4 | |
| 20260506142545 | 65 | 0.0 | 0.0 | 0.00 | 0.00 | 0.09 | 73 | 1009.3 | |
| 20260506142044 | 65 | 0.0 | 0.0 | 0.00 | 0.00 | 0.09 | 73 | 1009.4 | |
| 20260506141543 | 65 | 0.0 | 0.0 | 0.00 | 0.00 | 0.08 | 72 | 1009.4 | |
| 20260506141041 | 65 | 0.0 | 0.0 | 0.00 | 0.00 | 0.07 | 72 | 1009.5 | |
| 20260506140542 | 65 | 0.0 | 0.0 | 0.00 | 0.00 | 0.06 | 71 | 1009.6 | |
| 20260506140040 | 66 | 0.0 | 0.0 | 0.00 | 0.00 | 0.05 | 71 | 1009.6 | |
| 20260506135537 | 66 | 0.0 | 0.0 | 0.00 | 0.00 | 0.04 | 70 | 1009.7 | |
| 20260506135035 | 66 | 0.0 | 0.0 | 0.00 | 0.00 | 0.03 | 69 | 1009.8 | |
| 20260506134534 | 66 | 0.0 | 0.0 | 0.00 | 0.00 | 0.03 | 69 | 1010.0 | |
| 20260506134033 | 66 | 0.0 | 0.0 | 0.00 | 0.00 | 0.02 | 68 | 1010.0 | |
| 20260506133530 | 67 | 0.0 | 0.0 | 0.00 | 0.00 | 0.02 | 68 | 1010.0 | |
| 20260506133031 | 67 | 0.0 | 0.0 | 0.00 | 0.00 | 0.01 | 67 | 1009.9 | |
| 20260506132528 | 67 | 0.0 | 0.0 | 0.00 | 0.00 | 0.01 | 67 | 1009.8 | |
| 20260506132027 | 67 | 0.0 | 0.0 | 0.00 | 0.00 | 0.00 | 66 | 1009.4 | |
| 20260506131528 | 67 | 0.0 | 0.0 | 0.00 | 0.00 | 0.00 | 66 | 1009.6 | |
| 20260506131025 | 67 | 0.0 | 0.0 | 0.00 | 0.00 | 0.00 | 66 | 1009.4 | |
| 20260506130526 | 68 | 0.0 | 0.0 | 0.00 | 0.00 | 0.00 | 66 | 1009.3 | |
| 20260506130021 | 68 | 0.0 | 0.0 | 0.00 | 0.00 | 0.00 | 65 | 1009.2 | |
| 20260506125519 | 68 | 0.0 | 0.0 | 0.00 | 0.00 | 0.00 | 65 | 1009.0 | |
| 20260506125019 | 68 | 0.0 | 0.0 | 0.00 | 0.00 | 0.00 | 65 | 1009.1 | |
| 20260506124517 | 68 | 0.0 | 0.0 | 0.00 | 0.00 | 0.00 | 64 | 1009.2 | |
| 20260506124015 | 68 | 0.0 | 0.0 | 0.00 | 0.00 | 0.00 | 64 | 1009.2 | |
| 20260506123514 | 68 | 0.0 | 0.0 | 0.00 | 0.00 | 0.00 | 64 | 1009.4 | |
| 20260506123012 | 68 | 0.0 | 0.0 | 0.00 | 0.00 | 0.00 | 64 | 1009.4 | |
| 20260506122511 | 68 | 0.0 | 0.0 | 0.00 | 0.00 | 0.00 | 64 | 1009.7 | |
| 20260506122012 | 68 | 0.0 | 0.0 | 0.00 | 0.00 | 0.00 | 63 | 1009.7 | |
| 20260506121508 | 68 | 0.0 | 0.0 | 0.00 | 0.00 | 0.00 | 63 | 1009.7 | |
| 20260506121006 | 68 | 0.0 | 0.0 | 0.00 | 0.00 | 0.00 | 63 | 1009.6 | |
| 20260506120507 | 68 | 0.0 | 0.0 | 0.00 | 0.00 | 0.00 | 61 | 1009.5 | |
| 20260506120004 | 68 | 0.0 | 0.0 | 0.00 | 0.00 | 0.00 | 61 | 1009.6 | |
| 20260506115502 | 68 | 0.0 | 0.0 | 0.00 | 0.00 | 0.00 | 61 | 1009.6 | |
| 20260506115000 | 68 | 0.0 | 0.0 | 0.00 | 0.00 | 0.00 | 61 | 1009.4 | |
| 20260506114559 | 68 | 0.0 | 0.0 | 0.00 | 0.00 | 0.00 | 61 | 1009.4 | |
| 20260506114057 | 68 | 0.0 | 0.0 | 0.00 | 0.00 | 0.00 | 61 | 1009.3 | |
| 20260506113556 | 68 | 0.0 | 0.0 | 0.00 | 0.00 | 0.00 | 61 | 1009.2 | |
| 20260506113104 | 68 | 0.0 | 0.0 | 0.00 | 0.00 | 0.00 | 61 | 1009.3 | |
| 20260506112554 | 68 | 0.0 | 0.0 | 0.00 | 0.00 | 0.00 | 62 | 1009.1 | |
| 20260506112054 | 68 | 0.0 | 0.0 | 0.00 | 0.00 | 0.00 | 62 | 1009.0 | |
| 20260506111551 | 68 | 0.0 | 0.0 | 0.00 | 0.00 | 0.00 | 62 | 1009.1 | |
| 20260506111049 | 68 | 0.0 | 0.0 | 0.00 | 0.00 | 0.00 | 62 | 1008.9 | |
| 20260506110548 | 67 | 0.0 | 0.0 | 0.00 | 0.00 | 0.00 | 62 | 1009.0 | |
| 20260506110053 | 67 | 0.0 | 0.0 | 0.00 | 0.00 | 0.00 | 62 | 1009.0 | |
| 20260506105545 | 67 | 0.0 | 0.0 | 0.00 | 0.00 | 0.00 | 62 | 1008.8 | |
| 20260506105046 | 67 | 0.0 | 0.0 | 0.00 | 0.00 | 0.00 | 62 | 1008.9 | |
| 20260506104541 | 67 | 0.0 | 0.0 | 0.00 | 0.00 | 0.00 | 62 | 1008.8 | |
| 20260506104040 | 67 | 0.0 | 0.0 | 0.00 | 0.00 | 0.00 | 62 | 1008.7 | |
| 20260506103539 | 67 | 0.0 | 0.0 | 0.00 | 0.00 | 0.00 | 62 | 1008.9 | |
| 20260506103037 | 67 | 0.0 | 0.0 | 0.00 | 0.00 | 0.00 | 62 | 1008.7 | |
| 20260506102539 | 67 | 0.0 | 0.0 | 0.00 | 0.00 | 0.00 | 62 | 1008.8 | |
| 20260506102035 | 67 | 0.0 | 0.0 | 0.00 | 0.00 | 0.00 | 62 | 1008.8 | |
| 20260506101548 | 67 | 0.0 | 0.0 | 0.00 | 0.00 | 0.00 | 62 | 1008.7 | |
| 20260506101031 | 67 | 0.0 | 0.0 | 0.00 | 0.00 | 0.00 | 61 | 1008.7 | |
| 20260506100530 | 67 | 0.0 | 0.0 | 0.00 | 0.00 | 0.00 | 61 | 1008.5 | |
| 20260506100029 | 67 | 0.0 | 0.0 | 0.00 | 0.00 | 0.00 | 61 | 1008.7 | |
| 20260506095527 | 68 | 0.0 | 0.0 | 0.00 | 0.00 | 0.00 | 61 | 1008.7 | |
| 20260506095026 | 68 | 0.0 | 0.0 | 0.00 | 0.00 | 0.00 | 61 | 1008.8 | |
| 20260506094525 | 68 | 0.0 | 0.0 | 0.00 | 0.00 | 0.00 | 61 | 1008.8 | |
| 20260506094023 | 68 | 0.0 | 0.0 | 0.00 | 0.00 | 0.00 | 61 | 1008.7 | |
| 20260506093521 | 68 | 0.0 | 0.0 | 0.00 | 0.00 | 0.00 | 61 | 1008.8 | |
| 20260506093020 | 68 | 0.0 | 0.0 | 0.00 | 0.00 | 0.00 | 60 | 1008.8 | |
| 20260506092519 | 68 | 0.0 | 0.0 | 0.00 | 0.00 | 0.00 | 60 | 1008.7 | |
| 20260506092021 | 68 | 0.0 | 0.0 | 0.00 | 0.00 | 0.00 | 60 | 1008.7 | |
| 20260506091520 | 68 | 0.0 | 0.0 | 0.00 | 0.00 | 0.00 | 59 | 1008.8 | |
| 20260506091014 | 69 | 0.0 | 0.0 | 0.00 | 0.00 | 0.00 | 59 | 1008.8 | |
| 20260506090515 | 69 | 0.0 | 0.0 | 0.00 | 0.00 | 0.00 | 59 | 1008.9 | |
| 20260506090012 | 69 | 0.0 | 0.0 | 0.00 | 0.00 | 0.00 | 59 | 1008.9 |